Regional Weather Roundup
Issued by NWS

Home | Current Version | Previous Version | Text Only | Print | Product List | Glossary Off
Versions: 1 2 3 4 5 6 7 8 9 10 11 12 13 14 15 16 17 18 19 20 21 22 23 24 25 26 27 28 29 30 31 32 33 34 35 36 37 38 39 40 41 42 43 44 45 46 47 48 49 50

254
ASUS43 KIND 191709
RWRIN

WEATHER ROUNDUP FOR INDIANA
NATIONAL WEATHER SERVICE INDIANAPOLIS IN
100 PM EDT THU OCT 19 2017

NOTE: "FAIR" INDICATES FEW OR NO CLOUDS BELOW 12,000 FEET WITH NO
SIGNIFICANT WEATHER AND/OR OBSTRUCTIONS TO VISIBILITY.

* - STATION DOES NOT REPORT WEATHER SUCH AS PRECIPITATION OR FOG.

+ - STATION NOT QUALITY CONTROLLED BY THE NATIONAL WEATHER SERVICE.
    USE DATA WITH CAUTION...ESPECIALLY DEWPOINT AND RELATIVE
    HUMIDITY OBSERVATIONS.

INZ001>003-010>013-019-020-191800-
NORTHWEST INDIANA

CITY           SKY/WX    TMP DP  RH WIND       PRES   REMARKS
GARY /AIRPORT/ MOSUNNY   64  25  22 N7        30.21R
KNOX *+        SUNNY     64  45  48 NW5       30.19S
LA PORTE +     SUNNY     64  42  44 N7        30.20S
MICHIGAN CITY+ SUNNY     63  36  36 N5        30.21R
MONTICELLO +   SUNNY     67  47  49 W3        30.19R
RENSSELAER +   SUNNY     64  37  36 CALM      30.20R
VALPARAISO     SUNNY     67  42  40 NW7       30.20R

$$

LMZ046-743>745-191800-
SOUTHERN LAKE MICHIGAN

STATION/POSITION TIME  TEMP    WIND        PRES    WAVE
                       AIR SEA DIR/SP/G            HT
                 (UTC) (F)     (DEG/KT/KT) (MB)    (FT)
BURNS HARBOR     1640   59     340/  4/  5 1023.0R
MICHIGAN CITY    1640   62     330/  5/  6   N/A
5NW MICH CITY    1700   59 58  350/  4/  6   N/A     2

$$

INZ004-005-014>016-021>024-191800-
NORTH CENTRAL INDIANA

CITY           SKY/WX    TMP DP  RH WIND       PRES   REMARKS
ELKHART        SUNNY     64  48  55 W8        30.18
GOSHEN         SUNNY     64  48  56 NW7       30.18R
LOGANSPORT +   SUNNY     64  50  59 NW5       30.20S
PERU/GRISSOM   SUNNY     67  51  57 W7        30.19R
SOUTH BEND     SUNNY     64  40  41 N8        30.19R
WARSAW +       SUNNY     63  50  63 W7        30.19R

$$

INZ006>009-017-018-025>027-191800-
NORTHEAST INDIANA

CITY           SKY/WX    TMP DP  RH WIND       PRES   REMARKS
AUBURN +       SUNNY     64  46  52 W6        30.18S
FORT WAYNE     PTSUNNY   66  49  54 SW9       30.18S
HUNTINGTON +   SUNNY     65  50  56 W6        30.18S
KENDALLVILLE + SUNNY     64  49  59 NW6       30.19R

$$

INZ028-029-035-036-043>045-051>053-191800-
WEST CENTRAL INDIANA

CITY           SKY/WX    TMP DP  RH WIND       PRES   REMARKS
GREENCASTLE +  SUNNY     68  50  52 CALM      30.22F
LAFAYETTE      SUNNY     65  52  62 SW6       30.19F
TERRE HAUTE    SUNNY     68  49  50 VRB5      30.22F

$$

INZ030>032-037>040-046>048-054>057-064-065-191800-
CENTRAL INDIANA

CITY           SKY/WX    TMP DP  RH WIND       PRES   REMARKS
ANDERSON       SUNNY     66  50  55 SW12      30.20
CP ATTERBURY + SUNNY     68  50  52 SW8       30.22F
COLUMBUS       SUNNY     66  45  45 SW6       30.23F
FRANKFORT +    MOSUNNY   71  52  51 W7        30.21S
GREENWOOD *+   SUNNY     71  53  52 W8        30.23S
INDIANAPOLIS   MOSUNNY   69  51  52 SW8       30.20F
-EAGLE CREEK   SUNNY     69  49  48 W6        30.20F
KOKOMO +       SUNNY     68  51  54 W8        30.20S
MT COMFORT *+  SUNNY     68  55  64 SW9       30.21F
SHELBYVILLE    SUNNY     70  48  45 VRB7      30.21F
ZIONSVILLE +   SUNNY     67  50  54 SW6       30.21S

$$

INZ033-034-041-042-049-050-058-059-191800-
EAST CENTRAL INDIANA

CITY           SKY/WX    TMP DP  RH WIND       PRES   REMARKS
MUNCIE         SUNNY     70  49  47 W8        30.20S
RICHMOND +     SUNNY     66  48  52 SW10      30.22F

$$

INZ060-061-067>069-081>083-085>088-191800-
SOUTHWEST INDIANA

CITY           SKY/WX    TMP DP  RH WIND       PRES   REMARKS
EVANSVILLE     SUNNY     69  49  48 SW9       30.26R
HUNTINGBURG +  SUNNY     69  52  54 SW10      30.26S
WASHINGTON +   SUNNY     70  47  44 SW7       30.24S

$$

INZ062-063-066-070>080-084-089>092-191800-
SOUTH CENTRAL AND SOUTHEAST INDIANA

CITY           SKY/WX    TMP DP  RH WIND       PRES   REMARKS
BEDFORD +      SUNNY     70  48  46 SW5       30.23F
BLOOMINGTON    SUNNY     68  48  48 SW8       30.23F
MADISON *+     SUNNY     70  45  40 S8        30.27F
NORTH VERNON + SUNNY     68  48  49 SW10      30.24F
SEYMOUR +      SUNNY     73  50  43 W14       30.23F

$$





USA.gov is the U.S. government's official web portal to all federal, state and local government web resources and services.